Theta_e
309 308 308 308 309 311 313 314 314 313 313 314 316 318 319 322 324 325 327 327 328 328 328 328 327 327 326 326 326 325 325 325 325 325 325 325 324 324 324 324 323 323 323 323 323 323 323 323 323 323 324 324 323 323 323 323 324 324 324 324 324 324
308 307 307 307 307 309 310 311 312 312 313 313 315 316 318 321 322 324 325 326 327 327 327 328 328 327 327 326 326 325 325 325 325 325 325 325 325 324 324 324 324 324 324 324 324 324 324 324 324 324 325 325 324 325 325 325 325 325 325 325 325 325
304 304 305 305 305 306 308 310 311 312 312 312 313 315 317 319 321 322 324 325 326 327 327 327 328 328 328 327 327 327 326 326 325 325 325 325 325 325 325 325 325 325 325 325 325 325 325 325 325 326 325 326 326 325 326 326 326 326 326 326 326 325
303 302 304 304 305 306 307 309 311 311 312 312 313 313 314 317 318 320 322 323 325 325 326 327 327 327 328 328 328 327 327 327 327 326 326 326 326 326 326 326 326 326 326 326 326 326 326 326 326 327 326 326 327 326 327 327 327 327 327 326 326 326
300 301 303 304 306 307 308 310 311 312 312 312 312 313 313 314 315 317 320 322 324 324 325 326 326 327 327 327 327 328 328 328 328 328 327 327 327 327 327 327 326 327 326 326 327 326 326 326 326 326 326 326 327 327 327 327 327 327 326 326 326 325
302 303 302 303 306 308 309 310 311 312 312 311 312 312 312 313 313 314 316 319 321 322 324 325 325 326 326 326 327 327 327 328 327 328 327 327 327 327 327 327 327 327 327 326 326 326 326 326 326 326 326 326 327 327 327 327 327 327 327 326 326 325
314 308 300 301 306 308 310 311 311 312 312 311 312 312 312 311 311 312 312 314 317 319 321 323 323 324 325 325 326 326 326 327 327 327 327 327 327 327 327 327 326 326 326 326 326 326 326 326 326 326 326 326 326 326 327 327 326 326 326 326 326 326
321 315 302 301 306 308 310 312 312 312 312 312 312 311 311 311 310 310 310 311 313 315 318 320 321 323 324 324 325 325 325 325 326 326 326 326 326 326 326 326 326 326 326 326 326 326 326 326 326 326 326 326 326 326 326 326 326 326 325 326 326 326
326 324 308 301 305 308 309 310 311 311 311 311 311 310 310 310 310 310 310 310 310 312 314 317 320 322 322 323 324 324 324 325 325 325 325 325 325 326 326 326 326 326 326 326 326 326 326 326 326 326 326 326 326 325 325 325 326 326 325 325 325 325
331 329 311 301 304 306 306 308 309 309 310 309 309 308 308 309 309 309 310 309 309 310 310 312 316 319 321 322 323 323 323 324 324 324 324 324 324 325 325 325 325 325 325 326 326 326 326 326 325 325 325 325 326 325 325 325 325 325 325 325 325 324
325 323 310 300 302 304 305 307 309 309 309 308 308 308 307 308 308 308 308 308 309 309 309 309 311 313 316 319 320 322 322 322 322 322 322 322 322 323 323 324 324 324 324 325 325 325 325 325 325 325 325 325 325 325 325 324 325 325 324 324 323 323
315 315 310 301 300 303 304 306 308 308 308 308 308 308 308 308 308 308 308 308 308 308 308 309 309 309 310 312 315 317 319 320 320 320 319 319 320 320 321 322 323 323 323 323 323 324 324 324 324 324 324 324 324 324 324 323 324 324 323 323 322 321
313 316 315 305 300 302 303 305 308 308 308 308 309 309 308 308 308 309 308 308 308 307 307 308 308 308 308 309 310 312 313 314 315 315 315 316 316 316 317 319 320 321 322 322 323 323 323 323 323 323 323 323 323 322 322 322 323 322 322 321 321 320
320 319 314 305 301 303 304 305 307 308 309 309 309 308 308 308 308 309 309 309 309 308 307 307 307 307 308 308 309 309 309 310 310 311 312 313 314 315 316 317 318 319 320 321 322 322 322 321 321 321 321 321 321 321 322 321 321 321 320 320 320 319
317 311 306 302 302 305 308 308 307 308 310 310 309 308 308 307 308 309 309 309 309 308 308 307 307 307 307 307 308 307 308 308 309 311 312 312 314 315 316 317 318 319 320 320 321 321 320 319 319 320 321 321 320 320 321 320 320 320 320 319 319 319
309 305 303 305 306 308 309 309 308 309 310 309 308 308 307 307 307 307 308 309 308 308 308 308 307 307 307 307 306 306 306 306 307 309 310 311 313 314 315 316 317 318 319 319 320 320 319 319 319 319 320 320 320 319 319 318 317 318 318 318 317 318
308 304 306 309 310 310 310 309 309 309 310 309 309 308 307 306 306 306 307 308 308 308 308 308 308 307 306 305 305 304 304 304 305 306 307 308 310 311 312 313 314 316 317 317 318 318 318 318 317 317 317 318 318 318 317 316 316 316 316 316 317 317
309 307 309 312 313 311 310 310 309 308 308 309 308 307 306 305 305 305 306 307 308 308 307 308 308 306 304 304 303 303 303 303 303 304 304 305 306 306 308 310 311 313 315 315 315 315 316 316 315 315 316 316 316 317 317 316 316 316 315 315 316 316
311 310 311 312 312 311 310 310 309 308 307 307 306 305 305 304 304 305 306 307 308 309 307 307 307 305 304 303 302 302 302 302 302 302 303 304 304 305 307 308 309 311 312 312 312 312 313 313 314 314 314 314 314 315 315 315 314 314 314 314 314 313
312 312 311 311 310 311 311 310 309 307 306 305 305 304 303 302 303 305 306 308 309 309 308 306 306 305 304 302 302 302 301 301 301 302 303 304 305 305 306 307 308 309 309 310 311 312 312 312 312 312 312 313 313 314 314 314 313 313 312 311 309 308
312 311 311 309 310 312 313 310 308 306 304 304 304 303 301 301 303 305 306 309 310 309 307 306 305 305 304 303 302 301 300 299 300 301 302 304 304 305 305 306 307 308 309 310 311 312 312 312 312 312 312 312 312 312 313 313 312 310 309 307 306 305
309 308 308 308 309 312 312 309 306 304 303 303 303 302 301 303 305 307 308 308 308 307 306 305 305 305 304 304 302 300 299 299 299 300 301 303 304 305 306 307 308 308 309 310 310 311 311 312 312 312 311 310 310 311 311 310 309 308 307 306 305 305
307 307 307 308 310 310 310 308 305 304 303 302 301 301 303 306 307 308 308 307 305 305 305 305 305 305 304 303 301 300 299 299 299 299 300 301 303 304 306 307 308 308 309 309 310 310 311 311 311 310 309 309 308 309 309 308 308 307 307 306 305 305
306 306 307 309 310 310 309 307 305 304 304 302 301 304 306 306 307 307 307 305 304 304 304 304 304 304 303 302 300 299 299 299 299 299 299 300 301 303 304 305 306 306 307 307 308 309 310 310 310 309 308 307 306 306 306 306 307 306 306 305 304 304
305 305 307 308 308 308 308 307 304 304 303 301 304 307 307 306 306 306 305 303 303 303 303 303 304 303 301 301 300 299 298 298 299 300 300 300 300 301 303 304 304 304 304 304 306 307 308 308 307 306 307 307 305 304 304 305 305 305 306 305 304 304
304 304 305 306 307 307 307 306 304 303 302 304 307 308 306 305 305 304 303 302 302 302 302 302 302 301 300 300 299 298 298 298 299 300 301 301 300 300 300 301 301 300 300 300 301 303 304 304 304 304 305 305 304 303 303 303 303 303 304 303 303 302
303 303 303 304 305 306 306 305 304 302 302 305 307 306 305 305 304 302 302 302 301 301 301 301 300 299 299 298 298 297 297 298 299 299 300 300 300 299 299 298 298 297 298 298 298 299 301 302 302 302 302 303 303 302 301 300 301 301 300 300 300 300
302 301 301 302 304 304 305 305 304 302 303 306 306 305 304 304 302 301 301 301 300 300 300 299 298 297 297 297 297 297 297 298 298 298 298 298 298 298 298 297 296 296 296 297 297 297 299 300 300 300 300 301 300 299 299 299 299 298 298 298 298 298
300 300 300 301 303 303 304 304 303 303 304 305 304 304 303 302 301 301 300 300 300 299 298 297 296 296 296 297 297 297 297 297 298 297 297 296 297 297 297 297 296 296 296 296 296 295 296 296 297 298 298 298 298 297 297 297 296 296 296 296 295 295
300 300 299 300 302 303 303 303 303 303 303 303 303 302 301 300 300 300 299 299 299 298 297 296 296 296 296 296 296 296 296 297 297 297 297 298 298 297 297 297 297 296 297 296 295 294 293 292 294 296 298 298 298 297 296 295 295 295 295 295 294 293
299 299 299 300 301 302 302 302 302 302 302 302 302 301 300 299 299 299 299 298 297 296 296 295 295 295 295 295 295 296 296 296 297 297 298 298 298 298 299 298 298 297 297 297 297 296 293 292 294 299 302 302 302 301 299 298 297 296 295 294 293 292
299 299 299 300 301 301 301 301 302 302 302 301 301 300 299 299 298 297 297 297 296 296 295 295 295 295 295 295 295 295 296 296 297 297 298 298 298 299 299 299 299 300 300 300 301 301 300 300 303 306 305 304 304 303 301 300 299 297 295 293 292 290
299 299 299 300 301 301 301 301 301 301 301 301 300 299 299 298 297 296 296 296 295 295 295 295 295 295 295 295 295 295 295 295 295 296 297 298 298 299 299 300 301 302 303 304 304 304 303 304 307 307 305 303 302 301 299 298 297 295 294 292 290 289
299 299 300 300 301 301 300 300 300 301 301 300 299 299 298 298 297 296 296 296 296 295 295 294 295 295 294 295 295 295 295 294 294 294 295 296 297 299 300 301 301 302 303 303 303 304 303 303 303 303 303 301 300 298 296 296 295 293 292 291 289 288
300 300 300 300 300 300 300 299 300 300 300 299 299 298 297 297 297 297 297 296 296 295 294 294 295 295 294 295 295 295 295 295 294 293 292 293 294 296 297 298 299 299 300 301 301 302 302 302 301 301 301 299 298 296 294 293 293 292 290 289 287 286
300 300 300 300 300 300 299 299 300 300 299 298 298 297 297 297 297 296 297 297 296 295 294 294 294 294 295 295 295 295 295 295 295 294 292 290 290 291 292 294 295 296 297 298 299 299 299 299 299 300 300 298 296 294 293 292 290 289 288 288 287 286
300 300 300 299 299 299 298 299 300 300 298 297 297 297 296 296 296 296 296 297 297 296 295 294 295 295 295 295 295 295 295 294 294 294 293 291 290 290 290 290 291 293 294 295 297 297 297 297 297 297 297 296 294 292 291 289 288 287 286 286 286 286
299 299 299 299 298 297 297 299 300 299 296 296 296 296 295 295 295 295 295 296 296 296 295 295 295 295 295 295 295 294 294 294 294 294 293 292 291 291 290 289 289 290 291 293 294 296 296 296 295 295 295 294 293 292 290 288 287 286 285 284 284 284
Wind_Speed
16 20 22 24 24 23 23 22 20 22 26 28 30 32 34 34 34 34 36 36 38 39 40 40 41 41 42 42 41 39 38 40 40 40 41 41 39 38 37 36 36 35 35 34 34 34 34 35 35 35 35 34 34 34 35 35 35 35 36 37 38 38
16 19 20 22 21 20 20 19 19 20 23 25 28 31 31 31 31 33 35 36 38 38 38 38 39 40 41 40 40 39 40 40 40 39 40 40 38 38 37 36 35 35 34 33 33 33 34 34 34 34 34 33 33 34 34 34 35 35 37 37 37 37
14 17 17 18 18 17 17 16 17 18 20 23 25 28 29 29 30 32 34 35 36 36 37 37 37 38 39 39 39 39 40 40 39 39 39 38 38 38 36 35 35 34 33 33 33 33 33 33 33 33 33 33 33 34 34 35 35 35 36 36 36 36
11 13 14 14 15 16 16 15 15 16 18 20 22 24 27 28 30 30 31 32 33 35 37 37 37 37 37 37 38 39 39 39 39 39 38 38 38 37 36 35 35 34 33 33 33 33 33 33 33 33 32 33 34 34 34 35 35 36 37 37 37 37
10 12 14 15 15 16 16 14 14 15 16 17 19 22 24 26 27 28 29 30 31 33 35 35 36 36 35 36 38 39 40 40 39 38 38 38 37 36 35 35 34 34 33 33 33 33 33 33 33 32 33 33 34 34 34 35 36 36 37 36 36 35
9 10 12 14 15 16 16 15 15 16 17 17 19 21 22 22 23 24 26 28 30 32 33 34 35 35 36 37 39 39 40 40 39 38 37 37 36 36 36 35 34 33 33 33 33 33 33 33 33 33 33 33 34 34 34 35 36 36 36 35 34 33
7 7 10 13 15 15 15 15 16 18 18 18 19 20 20 19 20 21 23 26 28 30 32 33 34 35 37 38 39 39 39 39 38 37 37 36 36 36 35 34 34 33 33 33 33 33 33 33 33 33 33 33 34 34 34 35 35 34 34 34 34 34
6 7 10 13 15 14 14 16 18 19 19 19 20 20 19 19 19 20 22 24 26 29 31 33 34 36 37 38 38 38 37 36 36 36 36 35 35 35 34 34 33 33 33 33 33 33 33 33 32 33 33 33 33 33 33 33 32 31 31 31 32 33
8 8 10 13 14 14 14 16 18 20 21 21 22 21 21 20 20 21 23 24 26 29 31 33 34 35 36 36 36 36 35 35 34 34 34 33 33 33 33 33 33 33 32 33 33 33 32 32 32 32 32 31 30 31 31 31 30 30 31 30 31 32
8 8 9 11 12 13 15 18 20 21 22 24 24 22 22 22 21 23 25 25 27 30 32 32 32 32 33 33 33 33 33 33 33 33 32 32 32 32 32 32 32 31 31 31 32 32 31 31 31 31 30 29 29 29 29 28 29 30 31 31 31 31
9 8 8 9 10 13 16 19 21 22 24 26 26 25 23 22 22 24 26 27 30 33 32 31 30 30 30 30 31 32 32 32 31 30 30 30 30 31 31 30 30 30 30 30 30 30 30 30 30 30 29 28 27 27 27 27 28 29 30 30 29 29
7 7 7 9 12 14 17 19 22 23 25 26 27 27 24 23 23 24 26 29 32 33 31 29 29 28 28 28 29 30 30 30 29 28 28 28 28 28 28 27 27 28 29 29 28 28 28 28 29 28 26 25 25 26 27 27 27 27 28 28 27 27
7 7 7 10 14 16 18 21 22 22 23 26 28 27 24 23 24 25 27 30 31 30 28 29 28 27 27 27 27 27 27 27 26 25 26 25 25 25 24 24 24 25 25 25 25 25 25 25 24 22 22 22 24 25 26 25 25 26 26 26 25 25
9 8 9 13 17 19 21 23 23 22 25 29 29 26 23 24 25 27 28 29 29 27 27 27 27 27 28 27 27 26 25 23 22 23 23 22 22 21 21 22 23 23 22 22 22 22 22 21 20 20 20 21 22 23 24 24 24 24 24 25 24 23
8 10 14 17 20 22 24 25 24 25 27 29 28 24 24 25 27 28 28 28 27 26 26 25 25 26 27 27 26 25 23 22 23 23 23 22 22 21 21 22 22 21 21 21 21 22 21 20 20 20 20 20 20 21 21 22 22 22 23 24 24 23
11 15 19 21 24 27 27 26 26 27 28 28 27 26 26 26 27 28 27 27 27 26 25 24 24 25 25 25 24 24 23 24 25 26 25 25 24 24 24 23 22 22 22 22 21 21 21 21 20 19 18 18 18 19 19 19 19 20 22 23 23 22
12 17 22 27 30 30 29 28 28 28 28 28 29 28 27 26 27 27 27 27 27 27 26 25 24 24 23 23 22 22 23 24 25 26 26 26 27 27 27 25 24 23 23 23 23 22 22 23 23 22 22 21 18 18 19 18 17 18 20 21 21 21
15 19 25 31 33 29 28 29 28 27 29 30 29 28 28 27 26 27 27 28 29 30 29 28 26 25 23 22 22 23 24 25 25 24 24 24 25 25 25 25 25 24 24 23 22 22 22 23 24 25 26 24 21 20 19 18 17 17 19 20 21 22
22 24 28 31 32 30 28 28 27 27 29 29 26 26 27 26 27 29 29 30 32 33 32 30 28 27 26 24 24 26 26 26 25 24 22 22 22 22 23 24 24 24 24 23 23 23 23 24 24 25 25 24 23 21 19 18 17 17 19 20 21 22
25 27 28 28 30 34 34 32 29 28 28 27 25 25 26 26 29 31 31 33 36 36 35 33 31 29 28 28 28 29 28 26 25 24 22 23 23 23 23 23 23 23 24 24 24 24 24 24 24 23 23 23 22 21 20 19 18 18 18 19 20 20
24 25 25 24 28 37 39 34 29 26 26 27 26 25 24 27 31 34 36 39 40 39 36 34 32 31 31 31 31 30 29 27 25 24 22 22 22 22 22 22 23 24 24 24 24 23 23 23 23 23 22 22 22 22 21 20 19 18 18 18 18 18
20 21 23 24 29 37 38 32 27 24 26 27 25 24 27 30 34 38 42 43 40 36 35 34 33 33 33 33 32 29 27 26 25 24 23 23 22 21 22 23 24 24 24 24 23 23 23 23 23 23 22 22 22 22 21 21 20 19 18 18 18 18
20 21 24 28 31 34 35 30 25 25 28 25 22 26 33 36 38 41 43 42 37 35 35 35 35 35 34 32 30 27 26 25 25 25 25 25 24 23 23 24 24 24 23 24 24 23 23 23 23 22 21 21 21 21 21 21 20 19 19 19 19 19
21 22 26 31 31 32 33 28 25 28 28 24 26 34 39 38 39 41 41 39 37 36 36 36 35 35 33 31 28 27 27 26 26 25 25 26 27 26 25 25 25 24 24 24 23 23 23 23 23 22 21 20 20 20 21 20 18 17 17 17 17 18
20 22 28 31 29 30 31 26 26 30 27 26 35 42 40 38 39 39 38 37 36 36 36 36 36 35 33 31 29 29 28 27 27 26 25 26 27 27 26 25 25 25 25 25 25 24 24 23 23 22 21 20 20 20 20 18 17 16 16 16 16 16
20 23 28 30 29 30 30 26 26 29 29 33 42 43 38 38 38 35 35 36 36 35 36 36 35 34 33 31 30 29 28 28 28 28 27 27 27 27 26 26 26 25 24 23 24 25 24 23 22 21 21 21 20 20 20 18 17 16 15 15 15 14
22 23 26 30 31 30 31 29 27 27 31 39 44 41 38 38 35 32 34 35 35 35 35 34 33 33 32 31 30 30 30 30 30 29 29 29 28 27 25 25 25 25 23 22 22 23 24 23 22 21 21 21 21 20 20 19 18 16 15 15 14 13
22 21 22 28 32 32 33 33 29 29 36 42 43 40 37 34 32 32 34 34 34 34 33 31 30 30 30 30 31 31 31 31 31 30 29 29 29 27 26 24 24 23 22 21 21 22 23 23 23 22 21 21 21 21 20 19 17 16 15 14 13 12
20 18 19 25 31 33 35 36 33 34 39 42 42 39 35 31 31 32 32 32 33 32 32 31 30 30 30 30 31 31 30 31 31 30 28 28 28 27 25 24 24 24 23 21 21 21 22 23 23 23 23 23 23 22 21 19 18 17 15 14 14 13
19 19 20 24 31 34 35 37 37 37 39 41 40 36 32 30 31 31 32 32 32 31 31 32 31 30 30 31 32 32 32 32 33 32 33 34 34 32 29 27 26 26 25 23 21 19 19 20 24 26 26 25 24 24 23 21 20 19 18 17 17 16
21 21 23 28 33 34 35 38 40 40 39 39 37 32 30 30 31 31 31 30 29 29 29 29 30 30 29 29 30 32 32 33 35 35 34 35 35 33 31 29 28 26 25 23 23 21 20 21 26 29 28 25 24 25 25 24 23 22 21 20 20 18
23 22 26 32 36 34 33 38 41 40 39 37 32 29 30 30 29 28 28 27 26 27 27 28 28 29 29 28 28 29 29 30 32 33 31 31 31 31 30 29 28 28 26 25 26 27 25 25 27 27 26 24 24 24 24 24 24 23 23 22 20 19
25 25 28 33 35 33 33 36 40 40 38 35 30 28 30 30 28 26 25 25 27 28 29 28 28 28 29 28 28 28 26 25 26 29 30 30 30 30 30 29 28 28 28 27 28 28 26 24 23 24 26 26 23 23 23 22 21 21 21 21 21 20
25 27 32 34 33 33 34 36 39 41 38 34 29 27 29 30 29 26 25 27 28 29 29 28 27 27 27 27 27 27 26 23 21 22 25 28 29 29 30 30 29 28 28 27 27 27 26 23 20 20 23 24 22 22 21 20 18 19 19 20 20 20
27 30 33 34 34 35 36 37 41 42 38 32 29 27 28 31 32 30 29 28 28 28 28 27 27 27 28 28 27 27 27 25 23 23 23 23 23 25 26 27 28 27 25 25 25 24 24 23 20 18 19 21 21 21 20 19 18 18 19 21 21 20
29 31 33 35 36 37 36 38 44 45 37 30 27 26 28 32 33 33 31 29 28 28 28 28 28 28 28 28 28 27 27 27 26 25 23 21 20 21 22 23 24 23 22 22 23 22 20 20 19 19 20 20 21 21 21 20 19 17 18 20 21 20
29 32 36 37 37 36 35 40 47 44 34 27 26 26 28 31 31 32 31 30 29 29 28 29 29 28 27 27 27 27 27 27 26 24 24 23 23 22 21 21 21 21 21 21 23 22 20 19 19 20 21 21 22 23 23 22 21 20 19 20 20 20
28 33 38 38 36 34 35 42 47 40 29 25 25 25 28 29 29 29 29 28 28 29 28 28 29 29 28 27 27 27 26 25 24 24 24 24 23 21 20 20 21 21 20 21 22 22 21 21 21 21 22 23 23 24 25 25 23 21 20 20 20 19
Wind_Direction
254 254 254 255 255 254 252 249 245 241 238 236 234 234 235 234 231 230 230 229 230 231 232 233 233 233 234 235 235 235 234 236 236 236 239 242 242 243 244 244 244 244 243 243 244 245 246 247 247 247 246 243 242 242 243 244 244 243 243 245 245 245
257 259 259 261 260 257 253 249 246 243 241 238 236 237 238 236 234 233 232 232 232 233 233 234 235 235 235 235 235 235 235 237 237 237 239 241 242 243 243 243 244 244 243 243 244 244 245 246 246 246 245 242 241 241 242 243 242 241 242 244 244 244
266 266 266 266 266 262 257 252 250 246 242 239 237 238 238 237 236 235 235 235 233 233 234 235 236 236 236 236 236 236 237 238 238 238 240 241 242 242 242 242 243 243 243 243 244 245 245 245 245 245 243 241 241 241 241 242 241 241 243 244 244 244
272 279 281 279 275 268 258 250 248 245 241 240 238 239 239 239 239 237 237 237 235 236 237 237 237 237 237 236 237 237 238 238 239 239 239 240 241 241 241 242 243 243 243 243 244 245 245 244 244 244 243 241 240 241 241 241 240 241 242 243 243 243
284 293 293 287 280 269 256 245 242 244 244 242 239 239 241 241 241 241 239 238 238 239 239 239 239 238 238 237 237 238 238 239 240 239 239 239 241 241 241 243 244 243 244 243 244 245 244 244 243 242 242 241 241 241 241 241 241 241 241 241 241 242
293 292 286 280 273 261 249 240 239 241 242 241 240 242 245 245 244 243 241 240 240 241 240 240 240 238 238 238 238 239 239 240 240 239 240 240 241 242 243 244 244 244 244 243 243 244 243 244 244 243 242 241 242 242 243 244 244 243 243 243 244 247
282 268 264 264 260 250 240 238 238 238 239 240 242 246 249 249 247 245 244 242 242 242 240 241 240 238 238 239 239 240 240 240 240 240 241 241 242 243 244 244 243 242 242 242 243 243 244 245 245 244 244 243 244 244 245 245 245 245 245 246 250 252
264 253 250 249 249 245 239 239 240 239 241 243 244 248 250 249 248 247 246 243 242 242 242 241 240 239 239 239 240 240 240 241 241 241 242 241 242 243 243 243 243 242 242 242 244 244 245 246 246 245 246 245 246 246 246 246 247 249 250 250 253 254
262 256 252 247 247 248 246 246 245 245 247 249 250 250 250 251 249 247 247 245 243 242 242 241 240 240 240 240 241 241 241 241 241 241 242 242 241 242 242 242 242 242 242 243 244 244 244 245 246 245 245 246 247 247 247 248 250 252 253 253 255 255
271 266 262 261 261 260 255 252 253 254 256 259 258 255 253 252 250 249 248 246 245 245 245 244 242 241 241 241 241 242 241 241 241 240 241 241 240 240 241 241 241 242 243 243 244 245 245 245 245 245 245 245 247 248 248 249 251 252 253 254 255 254
265 266 272 277 270 264 261 257 257 259 260 262 261 257 253 251 249 250 249 246 247 249 248 246 245 244 243 242 241 240 240 240 240 239 239 239 239 239 240 240 241 241 241 242 242 243 243 243 243 243 244 244 245 246 248 249 251 252 252 252 252 252
254 267 282 279 265 260 260 259 258 258 260 262 261 258 254 249 248 249 248 248 250 251 249 247 246 244 242 241 240 239 239 238 238 238 238 238 239 239 238 238 239 239 240 240 240 240 240 241 242 242 242 243 245 245 246 248 250 252 251 249 248 248
272 273 275 271 268 265 263 263 261 260 261 263 261 260 256 251 249 249 247 249 252 250 248 246 244 242 240 239 239 237 237 237 236 236 237 237 238 238 236 235 234 235 237 237 236 236 237 237 238 239 240 241 244 245 245 246 248 249 248 247 245 245
278 273 266 265 267 266 265 265 264 261 262 263 262 262 258 253 251 249 247 248 249 248 246 244 242 240 239 237 236 234 233 233 232 232 233 233 233 232 231 230 231 232 232 232 232 234 234 236 236 237 239 241 243 244 245 245 245 244 244 243 243 244
273 266 263 263 264 266 269 268 264 263 263 263 264 265 260 255 252 248 244 245 246 245 244 243 240 239 237 234 233 231 228 226 226 226 227 226 226 225 224 225 226 226 226 227 228 228 227 230 232 231 235 238 237 238 239 241 241 242 242 241 240 240
264 264 266 268 269 272 274 270 264 264 264 263 264 265 261 256 251 247 243 243 244 244 242 240 239 238 237 234 232 229 227 226 225 225 225 224 224 223 223 223 224 223 223 223 225 223 222 226 229 230 232 232 231 231 232 234 236 240 242 240 237 237
254 262 267 271 274 275 275 271 267 266 265 264 263 262 259 254 249 246 244 243 243 243 240 237 235 236 235 232 229 227 226 227 227 227 226 226 227 227 227 227 226 225 223 222 223 222 222 225 228 231 235 235 232 230 230 230 231 234 237 236 235 237
250 255 263 270 274 274 273 273 272 270 268 267 264 259 255 251 247 246 244 244 244 243 239 234 231 230 229 227 224 224 224 224 226 226 226 227 229 229 228 226 225 223 221 219 220 221 224 227 226 228 231 232 230 227 225 225 226 228 230 231 233 236
260 261 264 270 274 275 275 275 275 272 269 267 263 257 252 246 243 244 244 244 245 244 240 234 228 225 224 223 222 223 224 223 223 223 222 223 224 223 221 220 219 220 220 220 221 224 225 225 223 222 223 222 221 221 220 219 219 223 227 230 234 236
266 267 269 272 276 278 279 278 276 272 269 266 261 255 247 240 241 242 242 244 246 245 241 235 228 223 221 221 223 224 223 222 221 219 218 219 221 221 220 220 220 220 221 221 221 221 220 219 218 217 217 217 216 217 217 216 215 217 223 229 232 233
272 274 275 274 275 279 281 280 277 272 266 265 262 254 245 240 242 243 244 246 247 245 240 235 229 225 222 223 225 225 224 223 220 218 217 218 222 224 222 220 220 219 218 218 218 218 218 218 219 219 218 216 214 215 215 214 210 209 214 222 226 227
284 283 280 275 276 281 284 284 282 273 265 264 260 252 247 248 251 252 250 249 247 243 239 235 230 228 226 225 226 225 224 223 219 215 214 214 218 222 221 219 217 216 217 217 217 218 219 220 220 219 217 214 213 213 213 210 205 203 206 214 221 225
288 283 280 280 282 284 284 285 282 274 269 266 255 250 253 256 257 257 253 249 246 242 239 235 232 230 229 227 225 222 221 221 218 216 212 210 212 215 217 218 216 217 219 218 216 217 218 220 221 219 216 213 212 212 212 208 204 203 206 210 217 224
285 282 281 283 285 285 285 283 277 272 270 264 257 260 263 261 258 256 252 248 245 241 238 235 232 230 228 226 222 219 217 216 216 215 211 208 208 210 213 215 215 218 221 220 218 218 217 217 218 217 214 211 208 208 209 206 201 201 203 206 213 222
281 280 282 286 288 287 286 280 271 271 269 263 265 270 269 263 258 254 249 245 242 239 236 233 231 228 225 222 219 215 213 211 211 210 208 207 207 207 210 213 214 217 219 218 217 218 216 215 213 211 210 208 206 206 206 203 200 200 202 206 214 223
282 283 285 289 289 288 285 276 267 267 267 269 275 276 271 265 260 251 245 242 239 236 235 231 228 225 222 219 214 210 209 208 206 206 205 205 204 204 206 210 210 211 212 213 213 214 214 213 211 208 207 206 206 205 204 202 200 198 201 205 213 223
286 288 289 291 292 291 287 279 267 262 266 275 280 278 272 267 259 247 242 239 235 233 232 228 224 221 218 215 209 205 205 204 202 202 202 201 201 201 203 206 206 206 207 209 211 211 212 212 211 208 205 204 204 204 202 201 200 197 197 201 208 216
291 288 289 293 295 295 291 285 273 264 270 278 281 278 273 266 255 244 240 235 232 231 227 222 219 216 214 212 209 206 205 202 200 201 200 199 199 200 202 203 203 204 206 208 209 210 209 209 208 207 204 202 202 200 199 198 197 197 197 198 201 208
294 291 290 291 295 296 294 290 282 275 278 282 281 278 274 263 250 242 237 232 229 226 220 216 213 210 209 209 206 205 206 205 203 202 200 199 199 200 202 203 202 203 204 205 205 206 205 204 204 203 201 199 197 196 194 194 193 193 193 193 194 199
291 293 291 290 294 296 294 291 288 286 286 285 283 278 270 258 247 239 234 231 225 219 215 212 209 205 205 205 203 203 203 204 204 204 204 205 203 200 200 201 202 204 204 201 198 196 196 200 203 202 200 199 197 194 191 189 189 189 189 189 190 191
287 290 290 291 294 295 293 291 292 292 290 288 285 276 262 252 244 237 233 229 222 216 212 210 208 205 204 203 204 205 206 206 206 207 210 212 211 207 205 203 202 205 204 200 199 197 196 201 207 206 203 203 204 202 196 192 191 190 189 190 190 187
289 288 287 290 294 295 293 292 293 295 294 291 285 270 255 247 240 234 229 223 218 215 210 207 207 206 203 201 202 204 208 211 212 212 214 216 217 216 213 210 209 210 209 208 211 212 213 217 218 211 204 204 207 206 200 196 193 190 188 187 187 186
295 290 286 289 294 295 293 293 294 296 295 292 282 267 252 243 235 230 225 219 216 215 211 207 206 204 202 202 201 200 201 206 211 215 218 219 219 219 218 218 218 218 218 218 218 218 220 224 223 214 206 203 201 199 195 193 192 190 189 187 184 182
294 291 289 291 295 296 295 295 295 295 294 290 280 264 249 239 232 229 225 220 216 215 213 209 205 202 200 200 200 199 198 197 198 205 213 217 219 219 219 219 219 219 219 219 219 219 218 217 215 211 206 201 195 191 190 189 189 189 190 189 186 184
288 289 291 293 295 297 297 296 296 295 293 287 278 263 247 237 232 230 228 223 216 212 210 208 205 202 201 200 198 198 197 195 194 195 198 203 209 214 216 217 217 216 216 215 216 217 216 212 208 205 203 199 192 186 184 184 186 188 187 186 187 187
288 289 291 292 294 296 297 295 295 295 291 285 276 263 249 240 236 234 232 227 219 212 208 206 205 203 202 202 201 199 199 200 201 198 190 182 183 191 200 207 210 210 210 208 207 207 206 205 203 199 197 193 188 183 181 179 179 182 187 190 192 192
287 289 290 291 293 295 293 291 292 293 290 283 274 262 250 243 238 236 237 233 225 217 211 208 207 204 203 203 203 203 204 203 202 199 192 185 182 182 184 188 193 197 199 198 196 195 194 194 194 191 188 186 182 180 177 172 167 170 180 189 196 198
285 287 289 291 292 291 288 288 290 291 288 281 272 258 248 243 237 235 237 234 228 222 216 211 209 205 204 205 204 204 206 203 200 198 194 191 189 185 178 175 176 180 186 189 189 188 187 187 187 184 180 180 181 179 176 171 167 169 175 183 191 197